Tracking 30922 objects as of 2-Jul-2025
HD Live streaming from Space Station
objects crossing your sky now

USA 43

Track USA 43 now!
USA 43 is classified as:


NORAD ID: 20202
Int'l Code: 1989-069A
Perigee: 36,191.2 km
Apogee: 36,339.0 km
Inclination: 13.2 °
Period: 1,460.2 minutes
Semi major axis: 42636 km
RCS: Unknown
Launch date: September 4, 1989
Source: United States (US)
Launch site: AIR FORCE EASTERN TEST RANGE (AFETR)
Your satellite tracking list
COSMOS 2500 (GLONASS)
Track 1 satellite(s)




NASA's NSSDC Master Catalog

Two Line Element Set (TLE):
1 20202U 89069A   25182.55445878 -.00000256  00000-0  00000-0 0  9996
2 20202  13.2497 338.8501 0017332 258.3082  27.0512  0.98613500 22346
Source of the keplerian elements: McCants